EJU17QK EDDH-LIRF

Flight info

Callsign EJU17QK
Flight time 1h 52m
Altitude 37000
Route AMLUH2D AMLUH M852 DENIX DCT ZUCKA DCT EXITI DCT BERAS M736 LIZUM N503 LIKDA DCT BAKOR DCT VESAL DCT GAVRA DCT RITEB
Aircraft A319/M-SDE2E3FGHIJ1RWXYZ/LB1

Departure

Time 2026-02-17 06:33
Airport Hamburg Helmut Schmidt Airport (EDDH)

Arrival

Time 2026-02-17 08:25
Airport Rome–Fiumicino Leonardo da Vinci International Airport (LIRF)
Time Latitude Longitude Altitude Speed Heading
2026-02-17 06:06 53.63375 10.00364 46 ft 0 kts 84°
2026-02-17 06:26 53.63375 10.00361 46 ft 1 kts 84°
2026-02-17 06:27 53.63372 10.00300 47 ft 2 kts 86°
2026-02-17 06:27 53.63370 10.00271 43 ft 3 kts 70°
2026-02-17 06:27 53.63362 10.00245 43 ft 3 kts 33°
2026-02-17 06:27 53.63344 10.00233 44 ft 3 kts
2026-02-17 06:28 53.63330 10.00233 42 ft 1 kts 356°
2026-02-17 06:28 53.63327 10.00233 46 ft 0 kts 356°
2026-02-17 06:30 53.63330 10.00233 42 ft 1 kts 356°
2026-02-17 06:30 53.63346 10.00231 43 ft 4 kts 356°
2026-02-17 06:30 53.63383 10.00227 45 ft 7 kts 356°
2026-02-17 06:31 53.63514 10.00150 46 ft 12 kts 319°
2026-02-17 06:31 53.63538 10.00107 46 ft 0 kts 315°
2026-02-17 06:32 53.63543 10.00098 45 ft 3 kts 315°
2026-02-17 06:32 53.63568 10.00057 46 ft 7 kts 315°
2026-02-17 06:32 53.63594 9.99966 46 ft 11 kts 262°
2026-02-17 06:32 53.63507 9.99775 45 ft 50 kts 230°
2026-02-17 06:33 53.63090 9.98944 46 ft 132 kts 230°
2026-02-17 06:33 53.62390 9.97513 272 ft 173 kts 228°
2026-02-17 06:33 53.61628 9.95911 1085 ft 176 kts 229°
2026-02-17 06:33 53.60840 9.94285 1765 ft 188 kts 230°
2026-02-17 06:34 53.59964 9.92494 2359 ft 204 kts 232°
2026-02-17 06:34 53.59048 9.90627 3254 ft 208 kts 233°
2026-02-17 06:34 53.58123 9.88735 4179 ft 211 kts 234°
2026-02-17 06:35 53.56224 9.84852 5857 ft 225 kts 234°
2026-02-17 06:35 53.55184 9.82699 6332 ft 249 kts 234°
2026-02-17 06:35 53.54053 9.80364 7010 ft 263 kts 234°
2026-02-17 06:35 53.52878 9.77949 7931 ft 269 kts 234°
2026-02-17 06:36 53.51685 9.75498 8894 ft 273 kts 234°
2026-02-17 06:36 53.50471 9.73008 9827 ft 278 kts 234°
2026-02-17 06:36 53.49201 9.70394 10257 ft 301 kts 234°
2026-02-17 06:36 53.47840 9.67597 10840 ft 314 kts 234°
2026-02-17 06:37 53.46437 9.64735 11673 ft 320 kts 234°
2026-02-17 06:37 53.45009 9.61832 12533 ft 324 kts 234°
2026-02-17 06:37 53.43564 9.58893 13373 ft 329 kts 234°
2026-02-17 06:37 53.41995 9.56069 14127 ft 336 kts 224°
2026-02-17 06:38 53.40024 9.53881 14881 ft 345 kts 209°
2026-02-17 06:38 53.37733 9.52564 15634 ft 354 kts 194°
2026-02-17 06:38 53.35272 9.52037 16392 ft 358 kts 189°
2026-02-17 06:39 53.30269 9.51075 17909 ft 366 kts 189°
2026-02-17 06:39 53.27729 9.50575 18552 ft 369 kts 189°
2026-02-17 06:39 53.25162 9.50063 19200 ft 373 kts 189°
2026-02-17 06:39 53.22571 9.49542 19844 ft 377 kts 189°
2026-02-17 06:40 53.19953 9.49019 20483 ft 381 kts 189°
2026-02-17 06:40 53.17305 9.48501 21119 ft 385 kts 189°
2026-02-17 06:40 53.14630 9.47983 21753 ft 389 kts 189°
2026-02-17 06:40 53.11922 9.47464 22389 ft 393 kts 189°
2026-02-17 06:41 53.09192 9.46942 23019 ft 397 kts 189°
2026-02-17 06:41 53.06433 9.46410 23567 ft 401 kts 189°
2026-02-17 06:41 53.03639 9.46008 24066 ft 407 kts 183°
2026-02-17 06:41 53.00801 9.46360 24563 ft 413 kts 172°
2026-02-17 06:42 52.98001 9.47589 25045 ft 419 kts 161°
2026-02-17 06:42 52.95357 9.49683 25518 ft 424 kts 149°
2026-02-17 06:42 52.92896 9.52419 25990 ft 428 kts 146°
2026-02-17 06:43 52.87944 9.58033 26925 ft 434 kts 146°
2026-02-17 06:43 52.85437 9.60860 27354 ft 438 kts 146°
2026-02-17 06:43 52.82903 9.63714 27732 ft 443 kts 146°
2026-02-17 06:43 52.80344 9.66588 28159 ft 447 kts 146°
2026-02-17 06:44 52.77763 9.69482 28589 ft 450 kts 146°
2026-02-17 06:44 52.75162 9.72396 29005 ft 454 kts 146°
2026-02-17 06:44 52.72542 9.75331 29423 ft 457 kts 146°
2026-02-17 06:44 52.69902 9.78287 29800 ft 460 kts 146°
2026-02-17 06:45 52.67278 9.81221 30111 ft 463 kts 147°
2026-02-17 06:45 52.64564 9.84245 30421 ft 466 kts 147°
2026-02-17 06:45 52.61902 9.87206 30715 ft 470 kts 147°
2026-02-17 06:45 52.59185 9.90223 30991 ft 473 kts 147°
2026-02-17 06:46 52.56447 9.93255 31238 ft 477 kts 147°
2026-02-17 06:46 52.53695 9.96302 31609 ft 477 kts 147°
2026-02-17 06:46 52.50943 9.99350 32016 ft 478 kts 147°
2026-02-17 06:47 52.45437 10.05433 32857 ft 477 kts 147°
2026-02-17 06:47 52.42679 10.08471 33246 ft 477 kts 147°
2026-02-17 06:47 52.39920 10.11508 33627 ft 478 kts 147°
2026-02-17 06:47 52.37158 10.14540 33939 ft 478 kts 147°
2026-02-17 06:48 52.34386 10.17568 34237 ft 479 kts 147°
2026-02-17 06:48 52.31620 10.20588 34505 ft 479 kts 147°
2026-02-17 06:48 52.28840 10.23629 34749 ft 481 kts 147°
2026-02-17 06:48 52.26059 10.26670 35015 ft 482 kts 147°
2026-02-17 06:49 52.23273 10.29709 35285 ft 482 kts 147°
2026-02-17 06:49 52.20481 10.32749 35553 ft 482 kts 147°
2026-02-17 06:49 52.17691 10.35779 35822 ft 482 kts 148°
2026-02-17 06:49 52.14895 10.38808 36095 ft 483 kts 148°
2026-02-17 06:50 52.12105 10.41825 36403 ft 481 kts 148°
2026-02-17 06:50 52.09312 10.44838 36602 ft 482 kts 148°
2026-02-17 06:51 52.00979 10.53830 36636 ft 479 kts 148°
2026-02-17 06:51 51.95425 10.59796 36643 ft 479 kts 148°
2026-02-17 06:52 51.89869 10.65751 36636 ft 479 kts 148°
2026-02-17 06:52 51.84307 10.71694 36637 ft 479 kts 148°
2026-02-17 06:53 51.78744 10.77611 36641 ft 478 kts 148°
2026-02-17 06:53 51.73179 10.83499 36644 ft 478 kts 148°
2026-02-17 06:54 51.67416 10.88759 36652 ft 475 kts 161°
2026-02-17 06:54 51.61068 10.91245 36645 ft 469 kts 175°
2026-02-17 06:55 51.51434 10.93659 36617 ft 469 kts 174°
2026-02-17 06:55 51.44978 10.95298 36628 ft 470 kts 174°
2026-02-17 06:56 51.38505 10.96926 36644 ft 471 kts 175°
2026-02-17 06:56 51.32032 10.98538 36642 ft 471 kts 175°
2026-02-17 06:57 51.25550 11.00149 36640 ft 471 kts 175°
2026-02-17 06:57 51.19068 11.01752 36666 ft 471 kts 175°
2026-02-17 06:58 51.12593 11.03363 36670 ft 471 kts 175°
2026-02-17 06:59 51.02882 11.05761 36650 ft 471 kts 175°
2026-02-17 06:59 50.96400 11.07349 36653 ft 472 kts 175°
2026-02-17 07:00 50.89910 11.08930 36654 ft 472 kts 175°
2026-02-17 07:00 50.83454 11.10506 36657 ft 472 kts 175°
2026-02-17 07:01 50.76963 11.12094 36647 ft 473 kts 175°
2026-02-17 07:01 50.70459 11.13683 36654 ft 473 kts 175°
2026-02-17 07:02 50.63950 11.15255 36660 ft 473 kts 175°
2026-02-17 07:02 50.57437 11.16821 36671 ft 474 kts 175°
2026-02-17 07:03 50.47657 11.19161 36685 ft 474 kts 175°
2026-02-17 07:03 50.41148 11.20726 36697 ft 473 kts 175°
2026-02-17 07:04 50.34647 11.22301 36698 ft 473 kts 175°
2026-02-17 07:04 50.28149 11.23864 36694 ft 472 kts 175°
2026-02-17 07:05 50.21645 11.25403 36699 ft 472 kts 175°
2026-02-17 07:05 50.15145 11.26934 36698 ft 473 kts 175°
2026-02-17 07:06 50.08646 11.28474 36680 ft 473 kts 175°
2026-02-17 07:07 49.98853 11.30784 36716 ft 476 kts 175°
2026-02-17 07:07 49.92299 11.32327 36726 ft 476 kts 175°
2026-02-17 07:08 49.85749 11.33854 36705 ft 476 kts 175°
2026-02-17 07:08 49.79202 11.35381 36707 ft 476 kts 175°
2026-02-17 07:09 49.72643 11.36912 36742 ft 476 kts 175°
2026-02-17 07:09 49.66092 11.38444 36748 ft 476 kts 175°
2026-02-17 07:10 49.59556 11.39959 36714 ft 475 kts 175°
2026-02-17 07:10 49.53008 11.41412 36724 ft 475 kts 177°
2026-02-17 07:11 49.43209 11.43020 36729 ft 474 kts 179°
2026-02-17 07:11 49.36655 11.44052 36710 ft 474 kts 178°
2026-02-17 07:12 49.30086 11.45164 36716 ft 475 kts 178°
2026-02-17 07:12 49.24579 11.46116 36721 ft 475 kts 178°
2026-02-17 07:13 49.17999 11.47247 36726 ft 476 kts 178°
2026-02-17 07:13 49.11413 11.48372 36701 ft 477 kts 178°
2026-02-17 07:14 49.04815 11.49474 36705 ft 477 kts 178°
2026-02-17 07:15 48.94905 11.51127 36739 ft 477 kts 178°
2026-02-17 07:15 48.88310 11.52237 36727 ft 477 kts 178°
2026-02-17 07:16 48.81710 11.53342 36737 ft 477 kts 178°
2026-02-17 07:16 48.75104 11.54446 36742 ft 477 kts 178°
2026-02-17 07:17 48.68497 11.55531 36729 ft 478 kts 178°
2026-02-17 07:17 48.61882 11.56609 36734 ft 478 kts 178°
2026-02-17 07:18 48.55261 11.57708 36735 ft 479 kts 178°
2026-02-17 07:18 48.48635 11.58814 36709 ft 480 kts 178°
2026-02-17 07:19 48.38670 11.60459 36725 ft 481 kts 178°
2026-02-17 07:19 48.32010 11.61540 36737 ft 481 kts 178°
2026-02-17 07:20 48.25347 11.62616 36740 ft 482 kts 178°
2026-02-17 07:20 48.18681 11.63697 36769 ft 482 kts 178°
2026-02-17 07:21 48.12024 11.64787 36791 ft 481 kts 178°
2026-02-17 07:21 48.05379 11.65875 36770 ft 480 kts 178°
2026-02-17 07:22 47.98739 11.66952 36770 ft 480 kts 178°
2026-02-17 07:23 47.88828 11.68535 36763 ft 480 kts 178°
2026-02-17 07:23 47.78871 11.70120 36737 ft 480 kts 178°
2026-02-17 07:24 47.72219 11.71184 36735 ft 481 kts 178°
2026-02-17 07:24 47.65557 11.72257 36747 ft 482 kts 178°
2026-02-17 07:25 47.58884 11.73321 36732 ft 483 kts 178°
2026-02-17 07:25 47.52210 11.74379 36749 ft 483 kts 178°
2026-02-17 07:26 47.45523 11.75432 36776 ft 483 kts 178°
2026-02-17 07:27 47.35513 11.76884 36763 ft 479 kts 184°
2026-02-17 07:27 47.28882 11.76568 36775 ft 476 kts 187°
2026-02-17 07:28 47.22263 11.76199 36787 ft 476 kts 187°
2026-02-17 07:28 47.15642 11.75841 36778 ft 476 kts 187°
2026-02-17 07:29 47.09016 11.75470 36762 ft 476 kts 187°
2026-02-17 07:29 47.02402 11.75107 36763 ft 476 kts 187°
2026-02-17 07:30 46.95777 11.74757 36747 ft 476 kts 187°
2026-02-17 07:30 46.89163 11.74397 36743 ft 475 kts 187°
2026-02-17 07:31 46.79235 11.73856 36745 ft 476 kts 187°
2026-02-17 07:31 46.72617 11.73502 36709 ft 476 kts 187°
2026-02-17 07:32 46.66007 11.73139 36708 ft 475 kts 187°
2026-02-17 07:32 46.59402 11.72773 36702 ft 475 kts 187°
2026-02-17 07:33 46.52793 11.72403 36682 ft 476 kts 187°
2026-02-17 07:33 46.46171 11.72034 36692 ft 476 kts 187°
2026-02-17 07:34 46.39548 11.71662 36657 ft 476 kts 187°
2026-02-17 07:35 46.29553 11.71826 36629 ft 481 kts 182°
2026-02-17 07:35 46.22858 11.72295 36635 ft 482 kts 182°
2026-02-17 07:36 46.16155 11.72668 36621 ft 482 kts 184°
2026-02-17 07:36 46.09457 11.72938 36629 ft 482 kts 184°
2026-02-17 07:37 46.02752 11.73197 36628 ft 482 kts 184°
2026-02-17 07:37 45.96045 11.73483 36612 ft 482 kts 184°
2026-02-17 07:38 45.89326 11.73778 36607 ft 484 kts 184°
2026-02-17 07:38 45.82590 11.74060 36606 ft 485 kts 184°
2026-02-17 07:39 45.72459 11.74482 36611 ft 487 kts 185°
2026-02-17 07:39 45.65675 11.74766 36634 ft 488 kts 184°
2026-02-17 07:40 45.58874 11.75060 36662 ft 490 kts 184°
2026-02-17 07:40 45.52052 11.75353 36665 ft 491 kts 184°
2026-02-17 07:41 45.45221 11.75645 36683 ft 491 kts 184°
2026-02-17 07:41 45.38386 11.75931 36689 ft 491 kts 184°
2026-02-17 07:42 45.31550 11.76210 36662 ft 492 kts 184°
2026-02-17 07:43 45.21326 11.76633 36654 ft 492 kts 184°
2026-02-17 07:43 45.14478 11.76913 36647 ft 492 kts 184°
2026-02-17 07:44 45.07641 11.77199 36642 ft 492 kts 184°
2026-02-17 07:44 45.00796 11.77486 36635 ft 492 kts 184°
2026-02-17 07:45 44.93948 11.77768 36607 ft 492 kts 185°
2026-02-17 07:45 44.87101 11.78051 36621 ft 492 kts 184°
2026-02-17 07:46 44.80255 11.78329 36643 ft 492 kts 185°
2026-02-17 07:46 44.73405 11.78608 36623 ft 492 kts 185°
2026-02-17 07:47 44.63140 11.79023 36666 ft 491 kts 184°
2026-02-17 07:47 44.56313 11.79301 36643 ft 490 kts 185°
2026-02-17 07:48 44.49498 11.79582 36667 ft 490 kts 185°
2026-02-17 07:48 44.42684 11.79861 36671 ft 490 kts 185°
2026-02-17 07:49 44.35872 11.80142 36661 ft 490 kts 185°
2026-02-17 07:49 44.29054 11.80414 36690 ft 491 kts 185°
2026-02-17 07:50 44.22214 11.80683 36700 ft 492 kts 185°
2026-02-17 07:51 44.11943 11.81091 36707 ft 492 kts 185°
2026-02-17 07:51 44.05095 11.81370 36705 ft 492 kts 185°
2026-02-17 07:52 43.98241 11.81646 36706 ft 493 kts 185°
2026-02-17 07:52 43.91374 11.81920 36688 ft 494 kts 185°
2026-02-17 07:53 43.84492 11.82193 36693 ft 496 kts 185°
2026-02-17 07:53 43.77575 11.82631 36710 ft 503 kts 178°
2026-02-17 07:54 43.67222 11.85794 36737 ft 509 kts 172°
2026-02-17 07:55 43.56862 11.89100 36049 ft 515 kts 172°
2026-02-17 07:55 43.54523 11.89834 35201 ft 526 kts 172°
2026-02-17 07:55 43.50966 11.90949 34738 ft 520 kts 172°
2026-02-17 07:55 43.47450 11.92061 34176 ft 518 kts 172°
2026-02-17 07:56 43.43937 11.93177 33499 ft 519 kts 171°
2026-02-17 07:56 43.39287 11.94653 32589 ft 516 kts 172°
2026-02-17 07:56 43.35801 11.95764 31989 ft 512 kts 172°
2026-02-17 07:56 43.33460 11.96508 31575 ft 511 kts 172°
2026-02-17 07:57 43.30003 11.97600 30958 ft 509 kts 172°
2026-02-17 07:57 43.26557 11.98685 30367 ft 507 kts 172°
2026-02-17 07:57 43.23121 11.99763 29799 ft 505 kts 172°
2026-02-17 07:57 43.19701 12.00831 29183 ft 503 kts 172°
2026-02-17 07:58 43.16313 12.01891 28649 ft 498 kts 172°
2026-02-17 07:58 43.12961 12.02942 28214 ft 491 kts 171°
2026-02-17 07:58 43.09686 12.03970 27690 ft 486 kts 171°
2026-02-17 07:59 43.03198 12.06004 26885 ft 473 kts 171°
2026-02-17 07:59 42.99964 12.07016 26422 ft 468 kts 171°
2026-02-17 07:59 42.96844 12.07991 25891 ft 465 kts 171°
2026-02-17 07:59 42.93703 12.08969 25451 ft 462 kts 171°
2026-02-17 08:00 42.90581 12.09942 25029 ft 458 kts 171°
2026-02-17 08:00 42.87490 12.10906 24610 ft 454 kts 170°
2026-02-17 08:00 42.84429 12.11858 24204 ft 449 kts 170°
2026-02-17 08:00 42.81395 12.12800 23799 ft 445 kts 170°
2026-02-17 08:01 42.78385 12.13728 23406 ft 441 kts 170°
2026-02-17 08:01 42.75400 12.14648 22954 ft 438 kts 170°
2026-02-17 08:01 42.72445 12.15562 22498 ft 433 kts 169°
2026-02-17 08:01 42.69581 12.16797 22065 ft 431 kts 157°
2026-02-17 08:02 42.66970 12.18687 21886 ft 420 kts 149°
2026-02-17 08:02 42.64487 12.20677 21663 ft 409 kts 149°
2026-02-17 08:02 42.62055 12.22615 21300 ft 403 kts 149°
2026-02-17 08:03 42.57267 12.26431 20524 ft 395 kts 149°
2026-02-17 08:03 42.54910 12.28309 20089 ft 392 kts 149°
2026-02-17 08:03 42.52568 12.30177 19700 ft 389 kts 149°
2026-02-17 08:03 42.50247 12.32027 19337 ft 385 kts 149°
2026-02-17 08:04 42.47953 12.33853 18965 ft 381 kts 149°
2026-02-17 08:04 42.45677 12.35664 18629 ft 377 kts 149°
2026-02-17 08:04 42.43430 12.37451 18318 ft 373 kts 149°
2026-02-17 08:04 42.41206 12.39222 17983 ft 369 kts 149°
2026-02-17 08:05 42.38974 12.40918 17609 ft 366 kts 155°
2026-02-17 08:05 42.36592 12.42032 17254 ft 360 kts 169°
2026-02-17 08:05 42.34130 12.42448 16862 ft 354 kts 182°
2026-02-17 08:05 42.31697 12.42190 16440 ft 349 kts 194°
2026-02-17 08:06 42.29315 12.41609 16027 ft 347 kts 194°
2026-02-17 08:06 42.26944 12.41041 15653 ft 345 kts 193°
2026-02-17 08:06 42.24583 12.40482 15283 ft 343 kts 194°
2026-02-17 08:07 42.19919 12.39379 14616 ft 338 kts 194°
2026-02-17 08:07 42.17607 12.38830 14301 ft 336 kts 194°
2026-02-17 08:07 42.15316 12.38289 13983 ft 334 kts 193°
2026-02-17 08:07 42.13033 12.37751 13673 ft 331 kts 193°
2026-02-17 08:08 42.10769 12.37220 13368 ft 328 kts 193°
2026-02-17 08:08 42.08531 12.36692 13100 ft 325 kts 193°
2026-02-17 08:08 42.06337 12.36171 12875 ft 324 kts 193°
2026-02-17 08:08 42.04119 12.35645 12614 ft 323 kts 193°
2026-02-17 08:09 42.01925 12.35128 12439 ft 316 kts 193°
2026-02-17 08:09 41.99787 12.34688 12295 ft 308 kts 187°
2026-02-17 08:09 41.97648 12.34812 12024 ft 307 kts 171°
2026-02-17 08:09 41.95595 12.35548 11766 ft 304 kts 163°
2026-02-17 08:10 41.93582 12.36394 11492 ft 302 kts 163°
2026-02-17 08:10 41.91579 12.37234 11231 ft 301 kts 163°
2026-02-17 08:10 41.89585 12.38070 10976 ft 300 kts 163°
2026-02-17 08:11 41.85624 12.39717 10462 ft 295 kts 163°
2026-02-17 08:11 41.83676 12.40525 10208 ft 291 kts 163°
2026-02-17 08:11 41.81750 12.41326 9983 ft 288 kts 163°
2026-02-17 08:11 41.79862 12.42114 9837 ft 280 kts 163°
2026-02-17 08:12 41.78030 12.42879 9712 ft 271 kts 163°
2026-02-17 08:12 41.76250 12.43621 9588 ft 265 kts 163°
2026-02-17 08:12 41.74497 12.44349 9455 ft 264 kts 163°
2026-02-17 08:12 41.72745 12.45076 9295 ft 264 kts 163°
2026-02-17 08:13 41.70993 12.45805 8990 ft 264 kts 163°
2026-02-17 08:13 41.69237 12.46536 8692 ft 263 kts 163°
2026-02-17 08:13 41.67496 12.47261 8399 ft 262 kts 163°
2026-02-17 08:13 41.65758 12.47983 8121 ft 261 kts 163°
2026-02-17 08:14 41.64027 12.48696 7826 ft 260 kts 163°
2026-02-17 08:14 41.62301 12.49407 7542 ft 259 kts 162°
2026-02-17 08:14 41.60582 12.50118 7259 ft 258 kts 162°
2026-02-17 08:15 41.57160 12.51522 6701 ft 257 kts 162°
2026-02-17 08:15 41.55456 12.52215 6421 ft 255 kts 162°
2026-02-17 08:15 41.53733 12.52746 6142 ft 254 kts 179°
2026-02-17 08:15 41.52023 12.52379 5840 ft 247 kts 208°
2026-02-17 08:16 41.50643 12.51143 5549 ft 233 kts 235°
2026-02-17 08:16 41.49809 12.49386 5275 ft 217 kts 260°
2026-02-17 08:16 41.49554 12.47476 4997 ft 204 kts 281°
2026-02-17 08:16 41.49808 12.45677 4805 ft 194 kts 300°
2026-02-17 08:17 41.50468 12.44162 4636 ft 186 kts 317°
2026-02-17 08:17 41.51355 12.42952 4461 ft 180 kts 321°
2026-02-17 08:17 41.52211 12.41799 4284 ft 175 kts 321°
2026-02-17 08:17 41.53049 12.40665 4123 ft 168 kts 321°
2026-02-17 08:18 41.53856 12.39574 3989 ft 163 kts 321°
2026-02-17 08:18 41.54791 12.38782 3869 ft 159 kts 338°
2026-02-17 08:18 41.55809 12.38232 3733 ft 158 kts 341°
2026-02-17 08:19 41.57889 12.37296 3477 ft 158 kts 343°
2026-02-17 08:19 41.58936 12.36852 3351 ft 158 kts 344°
2026-02-17 08:19 41.59989 12.36411 3223 ft 159 kts 344°
2026-02-17 08:19 41.61046 12.35971 3096 ft 159 kts 344°
2026-02-17 08:20 41.62103 12.35531 2970 ft 159 kts 343°
2026-02-17 08:20 41.63161 12.35091 2839 ft 159 kts 343°
2026-02-17 08:20 41.64221 12.34651 2719 ft 160 kts 343°
2026-02-17 08:20 41.65280 12.34210 2614 ft 156 kts 343°
2026-02-17 08:21 41.66273 12.33797 2550 ft 145 kts 343°
2026-02-17 08:21 41.67223 12.33401 2508 ft 141 kts 343°
2026-02-17 08:21 41.68148 12.33016 2506 ft 138 kts 343°
2026-02-17 08:21 41.69064 12.32635 2455 ft 138 kts 343°
2026-02-17 08:22 41.69977 12.32255 2324 ft 137 kts 343°
2026-02-17 08:22 41.70887 12.31876 2160 ft 137 kts 343°
2026-02-17 08:22 41.71803 12.31494 1988 ft 138 kts 343°
2026-02-17 08:23 41.73606 12.30742 1626 ft 128 kts 343°
2026-02-17 08:23 41.74442 12.30393 1457 ft 124 kts 343°
2026-02-17 08:23 41.75278 12.30045 1279 ft 125 kts 343°
2026-02-17 08:23 41.76096 12.29703 1108 ft 122 kts 343°
2026-02-17 08:24 41.76906 12.29365 940 ft 124 kts 340°
2026-02-17 08:24 41.77721 12.29024 782 ft 122 kts 341°
2026-02-17 08:24 41.78535 12.28684 621 ft 123 kts 340°
2026-02-17 08:24 41.79351 12.28349 436 ft 122 kts 340°
2026-02-17 08:25 41.80159 12.28007 282 ft 122 kts 339°
2026-02-17 08:25 41.80977 12.27671 133 ft 123 kts 339°
2026-02-17 08:25 41.81777 12.27335 18 ft 118 kts 340°
2026-02-17 08:25 41.82375 12.27072 12 ft 47 kts 343°
2026-02-17 08:26 41.82620 12.26891 15 ft 31 kts 313°
2026-02-17 08:26 41.82713 12.26741 15 ft 17 kts 310°
2026-02-17 08:26 41.82724 12.26617 16 ft 14 kts 193°
2026-02-17 08:27 41.82528 12.26699 15 ft 15 kts 164°
2026-02-17 08:27 41.82423 12.26739 15 ft 16 kts 164°
2026-02-17 08:27 41.82308 12.26787 16 ft 19 kts 161°
2026-02-17 08:27 41.82172 12.26846 15 ft 22 kts 163°
2026-02-17 08:28 41.82016 12.26910 15 ft 25 kts 162°
2026-02-17 08:28 41.81845 12.26982 15 ft 27 kts 163°
2026-02-17 08:28 41.81664 12.27059 15 ft 28 kts 162°
2026-02-17 08:28 41.81476 12.27136 15 ft 29 kts 163°
2026-02-17 08:29 41.81282 12.27217 15 ft 29 kts 162°
2026-02-17 08:29 41.81085 12.27300 15 ft 30 kts 162°
2026-02-17 08:29 41.80882 12.27346 15 ft 30 kts 188°
2026-02-17 08:29 41.80679 12.27281 15 ft 30 kts 211°
2026-02-17 08:30 41.80600 12.27047 17 ft 23 kts 250°
2026-02-17 08:30 41.80545 12.26844 17 ft 23 kts 252°
2026-02-17 08:30 41.80493 12.26638 15 ft 24 kts 249°
2026-02-17 08:31 41.80378 12.26217 15 ft 24 kts 251°
2026-02-17 08:31 41.80273 12.26060 16 ft 24 kts 202°
2026-02-17 08:31 41.80117 12.25969 16 ft 25 kts 207°
2026-02-17 08:31 41.79958 12.25871 15 ft 26 kts 204°
2026-02-17 08:32 41.79788 12.25801 15 ft 26 kts 203°
2026-02-17 08:32 41.79686 12.25744 15 ft 7 kts 160°
2026-02-17 08:32 41.79665 12.25804 16 ft 5 kts 116°
2026-02-17 08:32 41.79663 12.25809 16 ft 0 kts 116°